Location: Le Castellard
(44.1862°N, 6.1301°E)
Time: 18:44:18
(UTC+00:00)

STARLINK-49 - Pass Details

Date: 18 January 2020
Orbit: 529 x 531 km, 53.0° (Epoch: 16 February)

Event Time Altitude Azimuth Distance (km) Brightness Sun altitude
Rises 06:27:22 0° 232° (SW) 2,655 6.8 -7.1°
Reaches altitude 10° 06:29:34 10° 231° (SW) 1,769 5.9 -6.8°
Maximum altitude 06:33:35 82° 145° (SE) 539 3.7 -6.1°
Drops below altitude 10° 06:37:37 10° 57° (ENE) 1,779 6.7 -5.4°
Sets 06:39:50 0° 57° (ENE) 2,672 7.6 -5.1°
